Погода в Лексингтоне

США     38°02′53″N   84°30′01″W
темп.,
°C
ветер,
м/с
пор.,
м/с
влажн.,
%
обл.,
%
осадки,
мм/ч
давл.,
гПа
погр.,
м
31 июля, сб
сб3123:00+21ссв22835 0.0 101718
02:00+18св359342 0.0 101796
05:00+17св349389 0.0 101764
08:00+19св228873 0.0 101786
11:00+23ссв217451 0.0 1017483
14:00+25сз2267100 0.0 1016715
17:00+21сз4589100 0.4 1017291
20:00+19зсз2378100 0.4 101650
1 августа, вс
вс123:00+17сз22795 0.0 101618
02:00+16зсз1181100 0.0 101411
05:00+16зсз2283100 0.0 101421
08:00+17з2382100 0.0 1015112
11:00+22зсз3470100 0.0 1015623
14:00+24сз336078 0.0 1014988
17:00+26зсз345310 0.0 10141633
20:00+23сз37750 0.1 1013138
2 августа, пн
пн223:00+19с47900 0.1 1015124
02:00+17св23950 0.1 101648
05:00+16св34960 0.0 101681
08:00+16св35920 0.0 1017141
11:00+22св33720 0.0 1017667
14:00+25ссв436030 0.0 10161431
17:00+25ссв445319 0.0 10151600
20:00+21ссв47710 0.0 1015158
3 августа, вт
вт323:00+18ссв4117624 0.0 1016218
02:00+16св5118427 0.0 1016220
05:00+14ссв49877 0.0 1015167
08:00+15св3884100 0.0 1016189
11:00+20ссв566699 0.0 1016466
14:00+23ссв666050 0.0 1016704
17:00+24ссв565518 0.0 10151005
20:00+21ссв487299 0.0 1015229
4 августа, ср
ср423:00+20ссв5116578 0.0 1016359
02:00+17ссв4107470 0.0 1017230
05:00+17ссв487764 0.0 1017221
08:00+17св368219 0.0 1018192
11:00+22св456776 0.0 1019561
14:00+26св44552 0.0 10181232
17:00+27ссв445020 0.0 10171613
20:00+23ссв4768100 0.0 1017145